User: anonymous   Login
Location: El Mouella
(16.4949°N, 9.1594°W)
Time: 18:58:22
(UTC+00:00)
Language:

Cosmos 1666 - Orbit

View from above orbital plane
View from above orbital plane
View from above satellite
View from above satellite

Ground track
Ground track

The orbit data is extracted from the following two-line orbital elements,

1 15889U 85058A   21333.53611186  .00001603  00000-0  72730-4 0  9993
2 15889  82.4868 179.6382 0016841 156.3244 203.8770 15.19971701988700
Epoch (UTC): 29 November 2021 12:52:00
Eccentricity: 0.0016841
inclination: 82.4868°
perigee height: 494 km
apogee height: 517 km
right ascension of ascending node: 179.6382°
argument of perigee: 156.3244°
revolutions per day: 15.19971701
mean anomaly at epoch: 203.8770°
orbit number at epoch: 98870

The dashed part of the orbit path shows where the satellite is in the earth's shadow,  

DLR